Location: Aula-Vintri
(58.3875°N, 22.4322°E)
Time: 06:28:22
(UTC+00:00)

Cosmos 1818 - Pass Details

Date: 13 October 2019
Orbit: 775 x 798 km, 65.0° (Epoch: 16 November)

Event Time Altitude Azimuth Distance (km) Brightness Sun altitude
Rises 16:29:56 0° 242° (WSW) 3,295 8.0 -8.4°
Reaches altitude 10° 16:32:22 10° 244° (WSW) 2,369 7.2 -8.7°
Maximum altitude 16:37:49 71° 329° (NNW) 849 3.9 -9.5°
Drops below altitude 10° 16:43:18 10° 54° (NE) 2,382 5.6 -10.2°
Enters shadow 16:44:04 - 55° (NE) 2,667 5.8 -10.3°
